Regional Weather Roundup
Issued by NWS

Home | Current Version | Previous Version | Graphics & Text | Print | Product List | Glossary On
Versions: 1 2 3 4 5 6 7 8 9 10 11 12 13 14 15 16 17 18 19 20 21 22 23 24 25 26 27 28 29 30 31 32 33 34 35 36 37 38 39 40 41 42 43 44 45 46 47 48 49 50
410
ASUS43 KOAX 270710
RWRNE

WEATHER ROUNDUP FOR NEBRASKA
NATIONAL WEATHER SERVICE OMAHA NE
200 AM CDT SAT AUG 27 2016

NOTES: SATELLITE DATA IS BEING USED TO AUGMENT CLOUD COVER ABOVE
       12000 FEET.
       "FAIR" INDICATES FEW OR NO CLOUDS BELOW 12,000 FEET WITH NO
       SIGNIFICANT WEATHER AND/OR OBSTRUCTIONS TO VISIBILITY.

  * THESE STATIONS DO NOT REPORT WEATHER SUCH AS RAIN...SNOW OR FOG.

NEZ001>004-019>022-054>056-270800-
NEBRASKA PANHANDLE

CITY           SKY/WX    TMP DP  RH WIND       PRES   REMARKS
SCOTTSBLUFF    PTCLDY    56  52  86 SE9       30.08R
ALLIANCE       CLOUDY    54  52  93 N14       30.09S
CHADRON        MOCLDY    56  52  86 SE10      30.03S
KIMBALL        CLOUDY    53  53 100 W8        30.12R
SIDNEY         CLOUDY    53  51  93 SW5       30.09F FOG
$$

NEZ057>060-069>072-079>082-270800-
SOUTHWEST NEBRASKA

CITY           SKY/WX    TMP DP  RH WIND       PRES   REMARKS
NORTH PLATTE   FOG       53  52  96 NW6       30.06F VSB 1/4
IMPERIAL       MOCLDY    51  50  96 CALM      30.07S FOG
LEXINGTON      CLEAR     56  55  94 CALM      30.04F
MCCOOK         CLEAR     53  51  93 NW5       30.05F
OGALLALA       CLOUDY    57  55  91 CALM      30.07F
$$

NEZ005>010-023>029-035>040-094-270800-
NORTH CENTRAL NEBRASKA

CITY           SKY/WX    TMP DP  RH WIND       PRES   REMARKS
VALENTINE      FOG       54  52  93 SW5       30.06R VSB 3/4
AINSWORTH      CLEAR     55  55 100 S3        30.05F
BROKEN BOW     CLOUDY    63  62  97 SE5       30.04F
O`NEILL        CLOUDY    63  61  94 SE5       30.04F FOG
ORD            CLOUDY    63  61  93 E5        30.01F
THEDFORD       PTCLDY    53  53  98 SW5       30.09R FOG
$$

NEZ041-046>049-061>064-073>077-083>087-270800-
SOUTH CENTRAL NEBRASKA

CITY           SKY/WX    TMP DP  RH WIND       PRES   REMARKS
GRAND ISLAND   CLOUDY    65  63  93 CALM      30.04R
AURORA         LGT RAIN  65  65 100 SE5       30.03R
HASTINGS       CLOUDY    65  63  93 S3        30.04R
HEBRON         TSTM      68  67  97 CALM      30.03F
HOLDREGE       CLEAR     58  56  94 NW3       30.04S
KEARNEY *      CLOUDY    63  59  88 CALM      30.02F
YORK           LGT RAIN  64  64 100 SE7       30.01F VSB 3/4
$$

NEZ011>018-030>034-042>045-270800-
NORTHEAST NEBRASKA

CITY           SKY/WX    TMP DP  RH WIND       PRES   REMARKS
NORFOLK        LGT RAIN  63  61  93 S5        30.03F FOG
ALBION         CLOUDY    63  61  93 SE3       30.03F FOG
BLAIR          CLOUDY    65  64  95 CALM      30.03S
FREMONT        CLOUDY    65  64  94 E5        30.02F
TEKAMAH        CLOUDY    65  63  93 CALM      30.02F
WAYNE          RAIN      63  62  97 SE5       30.04S
$$

NEZ050>053-065>068-078-088>093-270800-
SOUTHEAST NEBRASKA

CITY           SKY/WX    TMP DP  RH WIND       PRES   REMARKS
LINCOLN        CLOUDY    68  66  93 S6        30.02F
OMAHA EPPLEY   CLOUDY    66  62  87 E3        30.02F
BEATRICE       CLOUDY    67  66  96 SE5       30.01F
FALLS CITY     FOG       66  66 100 CALM      30.02R VSB 1/4
NEBRASKA CITY  CLOUDY    66  66 100 CALM      30.02S FOG
PLATTSMOUTH    CLOUDY    66  65  99 NE3       30.02F
$$

NEZ044-045-051>053-067-270800-
OMAHA AREA

CITY           SKY/WX    TMP DP  RH WIND       PRES   REMARKS
OMAHA EPPLEY   CLOUDY    66  62  87 E3        30.02F
BLAIR          CLOUDY    65  64  95 CALM      30.03S
FREMONT        CLOUDY    65  64  94 E5        30.02F
MILLARD        CLOUDY    67  65  91 CALM      30.02F
OFFUTT AFB     CLOUDY    65  65 100 CALM      30.01S
PLATTSMOUTH    CLOUDY    66  65  99 NE3       30.02F
WAHOO          CLOUDY    65  64  94 SE6       30.01F
$$




USA.gov is the U.S. government's official web portal to all federal, state and local government web resources and services.